Time,TemperatureF,DewpointF,PressureIn,WindDirection,WindDirectionDegrees,WindSpeedMPH,WindSpeedGustMPH,Humidity,HourlyPrecipIn,Conditions,Clouds,dailyrainin,SolarRadiationWatts/m^2,SoftwareType,DateUTC
2013-04-10 00:02:00,59.8,40.1,30.09,NW,321,2.0,7.0,48,0.00,,,0.00,0,WeatherTracker,2013-04-10 07:02:00,
2013-04-10 00:07:00,59.6,40.4,30.09,NW,315,3.0,7.0,49,0.00,,,0.00,0,WeatherTracker,2013-04-10 07:07:00,
2013-04-10 00:12:00,59.4,40.2,30.09,NNW,329,6.0,6.0,49,0.00,,,0.00,0,WeatherTracker,2013-04-10 07:12:00,
2013-04-10 00:17:00,59.3,40.1,30.09,NW,318,2.0,8.0,49,0.00,,,0.00,0,WeatherTracker,2013-04-10 07:17:00,
2013-04-10 00:22:00,59.2,40.0,30.08,WNW,297,4.0,8.0,49,0.00,,,0.00,0,WeatherTracker,2013-04-10 07:22:00,
2013-04-10 00:27:00,59.3,39.6,30.08,WNW,296,5.0,13.0,48,0.00,,,0.00,0,WeatherTracker,2013-04-10 07:27:00,
2013-04-10 00:32:00,59.5,39.8,30.08,WNW,298,1.0,13.0,48,0.00,,,0.00,0,WeatherTracker,2013-04-10 07:32:00,
2013-04-10 00:38:00,59.6,39.9,30.09,West,267,1.0,13.0,48,0.00,,,0.00,0,WeatherTracker,2013-04-10 07:38:00,
2013-04-10 00:43:00,59.8,39.5,30.09,WNW,286,1.0,11.0,47,0.00,,,0.00,0,WeatherTracker,2013-04-10 07:43:00,
2013-04-10 00:48:00,60.0,39.7,30.09,NW,304,3.0,11.0,47,0.00,,,0.00,0,WeatherTracker,2013-04-10 07:48:00,
2013-04-10 00:53:00,60.0,39.7,30.09,NNW,327,3.0,11.0,47,0.00,,,0.00,0,WeatherTracker,2013-04-10 07:53:00,
2013-04-10 00:58:00,60.2,39.9,30.08,NW,319,6.0,11.0,47,0.00,,,0.00,0,WeatherTracker,2013-04-10 07:58:00,
2013-04-10 01:03:00,60.3,40.0,30.09,WNW,290,1.0,11.0,47,0.00,,,0.00,0,WeatherTracker,2013-04-10 08:03:00,
2013-04-10 01:08:00,60.4,39.5,30.09,West,263,8.0,9.0,46,0.00,,,0.00,0,WeatherTracker,2013-04-10 08:08:00,
2013-04-10 01:13:00,60.4,39.5,30.09,WNW,299,5.0,9.0,46,0.00,,,0.00,0,WeatherTracker,2013-04-10 08:13:00,
2013-04-10 01:18:00,60.5,39.6,30.08,WNW,302,2.0,9.0,46,0.00,,,0.00,0,WeatherTracker,2013-04-10 08:18:00,
2013-04-10 01:23:00,60.7,39.8,30.09,NW,311,1.0,14.0,46,0.00,,,0.00,0,WeatherTracker,2013-04-10 08:23:00,
2013-04-10 01:28:00,60.7,39.8,30.09,WNW,297,1.0,14.0,46,0.00,,,0.00,0,WeatherTracker,2013-04-10 08:28:00,
2013-04-10 01:33:00,60.7,39.8,30.09,NW,317,1.0,14.0,46,0.00,,,0.00,0,WeatherTracker,2013-04-10 08:33:00,
2013-04-10 01:38:00,60.6,39.7,30.09,NW,311,7.0,14.0,46,0.00,,,0.00,0,WeatherTracker,2013-04-10 08:38:00,
2013-04-10 01:43:00,60.5,40.2,30.08,West,280,3.0,8.0,47,0.00,,,0.00,0,WeatherTracker,2013-04-10 08:43:00,
2013-04-10 01:48:00,60.5,40.2,30.08,WNW,289,3.0,12.0,47,0.00,,,0.00,0,WeatherTracker,2013-04-10 08:48:00,
2013-04-10 01:53:00,60.4,40.1,30.08,NW,324,1.0,13.0,47,0.00,,,0.00,0,WeatherTracker,2013-04-10 08:53:00,
2013-04-10 01:58:00,60.3,40.0,30.08,NW,308,0.0,13.0,47,0.00,,,0.00,0,WeatherTracker,2013-04-10 08:58:00,
2013-04-10 02:03:00,60.2,39.9,30.08,NNW,328,1.0,14.0,47,0.00,,,0.00,0,WeatherTracker,2013-04-10 09:03:00,
2013-04-10 02:08:00,60.2,39.9,30.08,NNW,328,6.0,14.0,47,0.00,,,0.00,0,WeatherTracker,2013-04-10 09:08:00,
2013-04-10 02:14:00,60.1,39.8,30.08,NW,304,6.0,12.0,47,0.00,,,0.00,0,WeatherTracker,2013-04-10 09:14:00,
2013-04-10 02:19:00,60.0,39.7,30.08,WNW,302,2.0,12.0,47,0.00,,,0.00,0,WeatherTracker,2013-04-10 09:19:00,
2013-04-10 02:24:00,59.9,39.6,30.08,WNW,298,3.0,12.0,47,0.00,,,0.00,0,WeatherTracker,2013-04-10 09:24:00,
2013-04-10 02:29:00,59.9,39.6,30.08,WNW,288,2.0,12.0,47,0.00,,,0.00,0,WeatherTracker,2013-04-10 09:29:00,
2013-04-10 02:34:00,59.8,40.1,30.08,NW,317,2.0,12.0,48,0.00,,,0.00,0,WeatherTracker,2013-04-10 09:34:00,
2013-04-10 02:39:00,59.7,39.4,30.08,NW,321,0.0,12.0,47,0.00,,,0.00,0,WeatherTracker,2013-04-10 09:39:00,
2013-04-10 02:44:00,59.6,39.9,30.08,NW,323,4.0,12.0,48,0.00,,,0.00,0,WeatherTracker,2013-04-10 09:44:00,
2013-04-10 02:49:00,59.5,39.8,30.08,WNW,303,1.0,10.0,48,0.00,,,0.00,0,WeatherTracker,2013-04-10 09:49:00,
2013-04-10 02:54:00,59.3,40.1,30.08,WNW,298,3.0,10.0,49,0.00,,,0.00,0,WeatherTracker,2013-04-10 09:54:00,
2013-04-10 02:59:00,59.1,40.0,30.08,NW,316,3.0,8.0,49,0.00,,,0.00,0,WeatherTracker,2013-04-10 09:59:00,
2013-04-10 03:04:00,58.9,39.8,30.08,NW,315,2.0,8.0,49,0.00,,,0.00,0,WeatherTracker,2013-04-10 10:04:00,
2013-04-10 03:09:00,58.7,40.1,30.09,WNW,300,0.0,8.0,50,0.00,,,0.00,0,WeatherTracker,2013-04-10 10:09:00,
2013-04-10 03:14:00,58.6,40.0,30.09,NNW,341,0.0,8.0,50,0.00,,,0.00,0,WeatherTracker,2013-04-10 10:14:00,
2013-04-10 03:19:00,58.4,39.8,30.09,WNW,296,3.0,11.0,50,0.00,,,0.00,0,WeatherTracker,2013-04-10 10:19:00,
2013-04-10 03:24:00,58.3,40.3,30.09,West,275,0.0,12.0,51,0.00,,,0.00,0,WeatherTracker,2013-04-10 10:24:00,
2013-04-10 03:29:00,58.1,40.1,30.09,NW,305,2.0,12.0,51,0.00,,,0.00,0,WeatherTracker,2013-04-10 10:29:00,
2013-04-10 03:35:00,58.1,40.1,30.09,NNW,327,5.0,12.0,51,0.00,,,0.00,0,WeatherTracker,2013-04-10 10:35:00,
2013-04-10 03:40:00,58.1,40.1,30.09,NW,310,1.0,12.0,51,0.00,,,0.00,0,WeatherTracker,2013-04-10 10:40:00,
2013-04-10 03:45:00,58.1,40.1,30.09,WNW,299,3.0,7.0,51,0.00,,,0.00,0,WeatherTracker,2013-04-10 10:45:00,
2013-04-10 03:50:00,58.1,40.1,30.09,WNW,294,4.0,13.0,51,0.00,,,0.00,0,WeatherTracker,2013-04-10 10:50:00,
2013-04-10 03:55:00,58.2,40.2,30.09,West,278,3.0,13.0,51,0.00,,,0.00,0,WeatherTracker,2013-04-10 10:55:00,
2013-04-10 04:00:00,58.6,40.5,30.09,NW,312,5.0,15.0,51,0.00,,,0.00,0,WeatherTracker,2013-04-10 11:00:00,
2013-04-10 04:05:00,58.8,40.7,30.09,WNW,291,0.0,15.0,51,0.00,,,0.00,0,WeatherTracker,2013-04-10 11:05:00,
2013-04-10 04:10:00,59.0,40.4,30.09,WNW,299,2.0,10.0,50,0.00,,,0.00,0,WeatherTracker,2013-04-10 11:10:00,
2013-04-10 04:15:00,59.0,40.4,30.09,NW,312,0.0,9.0,50,0.00,,,0.00,0,WeatherTracker,2013-04-10 11:15:00,
2013-04-10 04:20:00,58.9,40.8,30.09,WNW,298,1.0,8.0,51,0.00,,,0.00,0,WeatherTracker,2013-04-10 11:20:00,
2013-04-10 04:25:00,58.9,40.8,30.10,NW,319,1.0,10.0,51,0.00,,,0.00,0,WeatherTracker,2013-04-10 11:25:00,
2013-04-10 04:31:00,58.8,40.7,30.10,WNW,294,5.0,11.0,51,0.00,,,0.00,0,WeatherTracker,2013-04-10 11:31:00,
2013-04-10 04:36:00,58.7,40.6,30.09,WNW,302,2.0,12.0,51,0.00,,,0.00,0,WeatherTracker,2013-04-10 11:36:00,
2013-04-10 04:41:00,58.6,41.0,30.10,NNW,332,4.0,12.0,52,0.00,,,0.00,0,WeatherTracker,2013-04-10 11:41:00,
2013-04-10 04:46:00,58.6,41.0,30.10,WNW,283,1.0,12.0,52,0.00,,,0.00,0,WeatherTracker,2013-04-10 11:46:00,
2013-04-10 04:51:00,58.5,40.9,30.10,West,280,4.0,12.0,52,0.00,,,0.00,0,WeatherTracker,2013-04-10 11:51:00,
2013-04-10 04:56:00,58.5,40.9,30.10,NW,322,3.0,13.0,52,0.00,,,0.00,0,WeatherTracker,2013-04-10 11:56:00,
2013-04-10 05:02:00,58.6,41.0,30.10,WNW,294,1.0,15.0,52,0.00,,,0.00,0,WeatherTracker,2013-04-10 12:02:00,
2013-04-10 05:07:00,58.8,41.2,30.10,WNW,302,10.0,15.0,52,0.00,,,0.00,0,WeatherTracker,2013-04-10 12:07:00,
2013-04-10 05:12:00,58.9,40.8,30.10,NNW,338,3.0,12.0,51,0.00,,,0.00,0,WeatherTracker,2013-04-10 12:12:00,
2013-04-10 05:17:00,59.0,40.9,30.10,WNW,284,8.0,12.0,51,0.00,,,0.00,0,WeatherTracker,2013-04-10 12:17:00,
2013-04-10 05:22:00,59.1,41.5,30.10,NNW,344,5.0,14.0,52,0.00,,,0.00,0,WeatherTracker,2013-04-10 12:22:00,
2013-04-10 05:27:00,59.2,41.6,30.10,NW,306,6.0,16.0,52,0.00,,,0.00,0,WeatherTracker,2013-04-10 12:27:00,
2013-04-10 05:32:00,59.2,41.6,30.10,NNW,336,1.0,16.0,52,0.00,,,0.00,0,WeatherTracker,2013-04-10 12:32:00,
2013-04-10 05:37:00,59.2,41.6,30.11,WNW,300,1.0,16.0,52,0.00,,,0.00,0,WeatherTracker,2013-04-10 12:37:00,
2013-04-10 05:42:00,59.3,41.7,30.11,NW,311,0.0,16.0,52,0.00,,,0.00,0,WeatherTracker,2013-04-10 12:42:00,
2013-04-10 05:47:00,59.5,41.9,30.11,NW,309,2.0,16.0,52,0.00,,,0.00,0,WeatherTracker,2013-04-10 12:47:00,
2013-04-10 05:52:00,59.6,41.4,30.11,NNW,329,4.0,16.0,51,0.00,,,0.00,0,WeatherTracker,2013-04-10 12:52:00,
2013-04-10 05:57:00,59.8,41.6,30.11,WNW,286,1.0,15.0,51,0.00,,,0.00,0,WeatherTracker,2013-04-10 12:57:00,
2013-04-10 06:02:00,59.8,41.6,30.11,NNW,327,1.0,15.0,51,0.00,,,0.00,0,WeatherTracker,2013-04-10 13:02:00,
2013-04-10 06:07:00,59.9,41.7,30.11,NW,316,4.0,15.0,51,0.00,,,0.00,0,WeatherTracker,2013-04-10 13:07:00,
2013-04-10 06:12:00,59.9,41.7,30.11,NW,321,0.0,18.0,51,0.00,,,0.00,0,WeatherTracker,2013-04-10 13:12:00,
2013-04-10 06:17:00,59.9,41.7,30.11,NW,315,1.0,18.0,51,0.00,,,0.00,0,WeatherTracker,2013-04-10 13:17:00,
2013-04-10 06:22:00,59.9,42.2,30.11,WNW,301,2.0,14.0,52,0.00,,,0.00,0,WeatherTracker,2013-04-10 13:22:00,
2013-04-10 06:27:00,59.9,42.2,30.11,West,277,1.0,15.0,52,0.00,,,0.00,0,WeatherTracker,2013-04-10 13:27:00,
2013-04-10 06:32:00,59.9,42.2,30.11,NW,315,0.0,15.0,52,0.00,,,0.00,0,WeatherTracker,2013-04-10 13:32:00,
2013-04-10 06:38:00,59.9,42.2,30.12,WNW,302,4.0,15.0,52,0.00,,,0.00,5,WeatherTracker,2013-04-10 13:38:00,
2013-04-10 06:43:00,59.9,42.7,30.12,NW,307,5.0,15.0,53,0.00,,,0.00,7,WeatherTracker,2013-04-10 13:43:00,
2013-04-10 06:48:00,59.8,42.6,30.12,WNW,294,3.0,12.0,53,0.00,,,0.00,11,WeatherTracker,2013-04-10 13:48:00,
2013-04-10 06:53:00,59.6,42.4,30.12,WNW,301,2.0,13.0,53,0.00,,,0.00,12,WeatherTracker,2013-04-10 13:53:00,
2013-04-10 06:58:00,59.5,42.4,30.13,WNW,290,4.0,13.0,53,0.00,,,0.00,16,WeatherTracker,2013-04-10 13:58:00,
2013-04-10 07:03:00,59.5,42.4,30.13,NW,306,0.0,11.0,53,0.00,,,0.00,18,WeatherTracker,2013-04-10 14:03:00,
2013-04-10 07:08:00,59.5,42.8,30.13,NW,317,1.0,12.0,54,0.00,,,0.00,19,WeatherTracker,2013-04-10 14:08:00,
2013-04-10 07:13:00,59.5,42.8,30.14,NW,316,1.0,12.0,54,0.00,,,0.00,21,WeatherTracker,2013-04-10 14:13:00,
2013-04-10 07:18:00,59.5,42.8,30.14,NW,310,1.0,13.0,54,0.00,,,0.00,28,WeatherTracker,2013-04-10 14:18:00,
2013-04-10 07:23:00,59.6,42.9,30.14,WNW,299,3.0,13.0,54,0.00,,,0.00,49,WeatherTracker,2013-04-10 14:23:00,
2013-04-10 07:28:00,59.9,43.2,30.14,WNW,299,1.0,8.0,54,0.00,,,0.00,33,WeatherTracker,2013-04-10 14:28:00,
2013-04-10 07:33:00,60.1,43.4,30.14,West,275,2.0,9.0,54,0.00,,,0.00,32,WeatherTracker,2013-04-10 14:33:00,
2013-04-10 07:38:00,60.5,43.8,30.14,NW,317,13.0,13.0,54,0.00,,,0.00,32,WeatherTracker,2013-04-10 14:38:00,
2013-04-10 07:43:00,60.7,44.0,30.14,WSW,255,7.0,16.0,54,0.00,,,0.00,39,WeatherTracker,2013-04-10 14:43:00,
2013-04-10 07:48:00,61.1,43.8,30.15,NW,316,11.0,16.0,53,0.00,,,0.00,151,WeatherTracker,2013-04-10 14:48:00,
2013-04-10 07:53:00,61.6,44.3,30.15,WNW,296,5.0,15.0,53,0.00,,,0.00,172,WeatherTracker,2013-04-10 14:53:00,
2013-04-10 07:58:00,62.0,44.7,30.15,NW,318,8.0,14.0,53,0.00,,,0.00,193,WeatherTracker,2013-04-10 14:58:00,
2013-04-10 08:03:00,62.5,44.6,30.15,WNW,289,2.0,14.0,52,0.00,,,0.00,213,WeatherTracker,2013-04-10 15:03:00,
2013-04-10 08:08:00,63.1,44.7,30.16,WNW,301,3.0,14.0,51,0.00,,,0.00,230,WeatherTracker,2013-04-10 15:08:00,
2013-04-10 08:13:00,63.7,45.2,30.16,WNW,303,1.0,16.0,51,0.00,,,0.00,246,WeatherTracker,2013-04-10 15:13:00,
2013-04-10 08:18:00,64.2,45.2,30.16,WNW,302,2.0,16.0,50,0.00,,,0.00,264,WeatherTracker,2013-04-10 15:18:00,
2013-04-10 08:24:00,64.7,45.6,30.16,NW,304,5.0,11.0,50,0.00,,,0.00,279,WeatherTracker,2013-04-10 15:24:00,
2013-04-10 08:29:00,65.2,45.6,30.16,WNW,292,5.0,10.0,49,0.00,,,0.00,299,WeatherTracker,2013-04-10 15:29:00,
2013-04-10 08:34:00,65.8,45.6,30.16,NW,309,2.0,10.0,48,0.00,,,0.00,316,WeatherTracker,2013-04-10 15:34:00,
2013-04-10 08:39:00,66.4,46.1,30.16,NW,306,1.0,9.0,48,0.00,,,0.00,334,WeatherTracker,2013-04-10 15:39:00,
2013-04-10 08:44:00,67.0,46.1,30.17,NNW,327,0.0,9.0,47,0.00,,,0.00,352,WeatherTracker,2013-04-10 15:44:00,
2013-04-10 08:49:00,67.7,46.2,30.17,NNW,334,4.0,12.0,46,0.00,,,0.00,369,WeatherTracker,2013-04-10 15:49:00,
2013-04-10 08:54:00,68.3,46.7,30.16,NW,314,5.0,13.0,46,0.00,,,0.00,388,WeatherTracker,2013-04-10 15:54:00,
2013-04-10 08:59:00,69.1,46.9,30.17,NW,311,6.0,13.0,45,0.00,,,0.00,406,WeatherTracker,2013-04-10 15:59:00,
2013-04-10 09:04:00,69.4,46.5,30.17,WNW,282,4.0,15.0,44,0.00,,,0.00,427,WeatherTracker,2013-04-10 16:04:00,
2013-04-10 09:09:00,69.6,46.1,30.17,NW,307,3.0,16.0,43,0.00,,,0.00,450,WeatherTracker,2013-04-10 16:09:00,
2013-04-10 09:14:00,70.1,46.6,30.16,NNW,328,1.0,16.0,43,0.00,,,0.00,466,WeatherTracker,2013-04-10 16:14:00,
2013-04-10 09:19:00,70.4,46.8,30.16,NW,312,7.0,19.0,43,0.00,,,0.00,482,WeatherTracker,2013-04-10 16:19:00,
2013-04-10 09:24:00,70.8,47.2,30.17,NW,306,5.0,19.0,43,0.00,,,0.00,499,WeatherTracker,2013-04-10 16:24:00,
2013-04-10 09:29:00,71.1,46.8,30.17,WNW,301,2.0,19.0,42,0.00,,,0.00,515,WeatherTracker,2013-04-10 16:29:00,
2013-04-10 09:34:00,71.3,47.0,30.17,West,277,7.0,14.0,42,0.00,,,0.00,531,WeatherTracker,2013-04-10 16:34:00,
2013-04-10 09:39:00,71.7,48.0,30.17,NNW,327,11.0,14.0,43,0.00,,,0.00,545,WeatherTracker,2013-04-10 16:39:00,
2013-04-10 09:44:00,72.0,47.6,30.17,NNW,331,0.0,16.0,42,0.00,,,0.00,561,WeatherTracker,2013-04-10 16:44:00,
2013-04-10 09:49:00,72.5,47.4,30.17,NW,310,2.0,16.0,41,0.00,,,0.00,575,WeatherTracker,2013-04-10 16:49:00,
2013-04-10 09:54:00,73.0,47.9,30.17,NW,315,4.0,17.0,41,0.00,,,0.00,594,WeatherTracker,2013-04-10 16:54:00,
2013-04-10 09:59:00,73.6,47.1,30.17,WNW,292,6.0,17.0,39,0.00,,,0.00,610,WeatherTracker,2013-04-10 16:59:00,
2013-04-10 10:04:00,74.3,48.4,30.17,WNW,292,3.0,16.0,40,0.00,,,0.00,622,WeatherTracker,2013-04-10 17:04:00,
2013-04-10 10:09:00,75.1,49.1,30.17,WNW,290,14.0,14.0,40,0.00,,,0.00,638,WeatherTracker,2013-04-10 17:09:00,
2013-04-10 10:15:00,75.6,48.9,30.16,NW,318,3.0,16.0,39,0.00,,,0.00,652,WeatherTracker,2013-04-10 17:15:00,
2013-04-10 10:20:00,75.7,49.0,30.16,NNW,332,5.0,16.0,39,0.00,,,0.00,664,WeatherTracker,2013-04-10 17:20:00,
2013-04-10 10:25:00,76.2,48.7,30.16,North,355,5.0,13.0,38,0.00,,,0.00,682,WeatherTracker,2013-04-10 17:25:00,
2013-04-10 10:30:00,76.9,48.6,30.16,WNW,300,8.0,14.0,37,0.00,,,0.00,696,WeatherTracker,2013-04-10 17:30:00,
2013-04-10 10:35:00,76.8,47.8,30.16,NNW,344,11.0,17.0,36,0.00,,,0.00,710,WeatherTracker,2013-04-10 17:35:00,
2013-04-10 10:40:00,76.7,49.2,30.16,NW,306,5.0,17.0,38,0.00,,,0.00,722,WeatherTracker,2013-04-10 17:40:00,
2013-04-10 10:45:00,77.0,48.7,30.16,NW,309,9.0,16.0,37,0.00,,,0.00,737,WeatherTracker,2013-04-10 17:45:00,
2013-04-10 10:50:00,77.0,48.7,30.16,NNW,333,5.0,16.0,37,0.00,,,0.00,749,WeatherTracker,2013-04-10 17:50:00,
2013-04-10 10:55:00,77.3,49.0,30.16,WNW,292,2.0,16.0,37,0.00,,,0.00,759,WeatherTracker,2013-04-10 17:55:00,
2013-04-10 11:00:00,77.5,49.2,30.16,NW,315,5.0,16.0,37,0.00,,,0.00,770,WeatherTracker,2013-04-10 18:00:00,
2013-04-10 11:05:00,77.9,49.5,30.16,WNW,292,2.0,14.0,37,0.00,,,0.00,780,WeatherTracker,2013-04-10 18:05:00,
2013-04-10 11:10:00,78.2,48.3,30.15,NNW,331,11.0,17.0,35,0.00,,,0.00,793,WeatherTracker,2013-04-10 18:10:00,
2013-04-10 11:15:00,78.6,48.6,30.15,WNW,297,9.0,17.0,35,0.00,,,0.00,803,WeatherTracker,2013-04-10 18:15:00,
2013-04-10 11:20:00,79.0,48.2,30.15,NW,311,9.0,15.0,34,0.00,,,0.00,814,WeatherTracker,2013-04-10 18:20:00,
2013-04-10 11:25:00,79.2,47.6,30.15,NW,306,3.0,17.0,33,0.00,,,0.00,823,WeatherTracker,2013-04-10 18:25:00,
2013-04-10 11:30:00,79.7,48.8,30.14,NNW,339,9.0,17.0,34,0.00,,,0.00,831,WeatherTracker,2013-04-10 18:30:00,
2013-04-10 11:35:00,80.1,48.4,30.14,NW,324,12.0,15.0,33,0.00,,,0.00,840,WeatherTracker,2013-04-10 18:35:00,
2013-04-10 11:40:00,80.5,48.7,30.14,North,350,12.0,14.0,33,0.00,,,0.00,849,WeatherTracker,2013-04-10 18:40:00,
2013-04-10 11:45:00,80.8,49.0,30.14,NW,311,12.0,14.0,33,0.00,,,0.00,860,WeatherTracker,2013-04-10 18:45:00,
2013-04-10 11:51:00,81.1,49.2,30.14,NW,323,2.0,16.0,33,0.00,,,0.00,865,WeatherTracker,2013-04-10 18:51:00,
2013-04-10 11:56:00,81.2,50.1,30.14,NW,317,2.0,16.0,34,0.00,,,0.00,872,WeatherTracker,2013-04-10 18:56:00,
2013-04-10 12:01:00,81.6,49.7,30.14,WNW,300,2.0,13.0,33,0.00,,,0.00,881,WeatherTracker,2013-04-10 19:01:00,
2013-04-10 12:06:00,82.0,50.8,30.13,WNW,299,0.0,13.0,34,0.00,,,0.00,882,WeatherTracker,2013-04-10 19:06:00,
2013-04-10 12:11:00,82.5,49.6,30.13,NW,309,3.0,12.0,32,0.00,,,0.00,893,WeatherTracker,2013-04-10 19:11:00,
2013-04-10 12:16:00,82.9,49.1,30.13,NW,319,2.0,12.0,31,0.00,,,0.00,896,WeatherTracker,2013-04-10 19:16:00,
2013-04-10 12:21:00,83.3,50.3,30.13,NNW,336,5.0,10.0,32,0.00,,,0.00,904,WeatherTracker,2013-04-10 19:21:00,
2013-04-10 12:26:00,83.9,50.9,30.12,NW,316,0.0,9.0,32,0.00,,,0.00,907,WeatherTracker,2013-04-10 19:26:00,
2013-04-10 12:31:00,84.0,49.2,30.12,NW,325,6.0,12.0,30,0.00,,,0.00,912,WeatherTracker,2013-04-10 19:31:00,
2013-04-10 12:36:00,83.7,49.8,30.12,WNW,288,0.0,12.0,31,0.00,,,0.00,914,WeatherTracker,2013-04-10 19:36:00,
2013-04-10 12:41:00,84.0,49.2,30.12,NNW,336,7.0,9.0,30,0.00,,,0.00,919,WeatherTracker,2013-04-10 19:41:00,
2013-04-10 12:47:00,84.4,50.4,30.11,WSW,258,3.0,10.0,31,0.00,,,0.00,925,WeatherTracker,2013-04-10 19:47:00,
2013-04-10 12:52:00,84.7,50.7,30.11,NNW,340,3.0,10.0,31,0.00,,,0.00,926,WeatherTracker,2013-04-10 19:52:00,
2013-04-10 12:57:00,85.0,50.1,30.11,North,5,0.0,10.0,30,0.00,,,0.00,930,WeatherTracker,2013-04-10 19:57:00,
2013-04-10 13:02:00,85.6,50.6,30.10,West,263,0.0,10.0,30,0.00,,,0.00,930,WeatherTracker,2013-04-10 20:02:00,
2013-04-10 13:07:00,85.7,50.7,30.10,NW,321,6.0,8.0,30,0.00,,,0.00,932,WeatherTracker,2013-04-10 20:07:00,
2013-04-10 13:12:00,85.8,50.7,30.10,NW,305,0.0,8.0,30,0.00,,,0.00,928,WeatherTracker,2013-04-10 20:12:00,
2013-04-10 13:17:00,85.9,50.8,30.09,WNW,295,7.0,9.0,30,0.00,,,0.00,932,WeatherTracker,2013-04-10 20:17:00,
2013-04-10 13:22:00,86.1,51.0,30.09,NNW,331,1.0,11.0,30,0.00,,,0.00,932,WeatherTracker,2013-04-10 20:22:00,
2013-04-10 13:27:00,86.6,51.4,30.09,NNW,332,3.0,11.0,30,0.00,,,0.00,930,WeatherTracker,2013-04-10 20:27:00,
2013-04-10 13:32:00,87.3,51.1,30.09,NW,308,3.0,11.0,29,0.00,,,0.00,932,WeatherTracker,2013-04-10 20:32:00,
2013-04-10 13:37:00,87.4,52.1,30.09,NNW,329,4.0,12.0,30,0.00,,,0.00,932,WeatherTracker,2013-04-10 20:37:00,
2013-04-10 13:42:00,87.8,51.5,30.08,NW,311,3.0,12.0,29,0.00,,,0.00,928,WeatherTracker,2013-04-10 20:42:00,
2013-04-10 13:47:00,87.8,51.5,30.08,NW,309,0.0,12.0,29,0.00,,,0.00,926,WeatherTracker,2013-04-10 20:47:00,
2013-04-10 13:52:00,87.9,50.7,30.08,NW,324,4.0,10.0,28,0.00,,,0.00,919,WeatherTracker,2013-04-10 20:52:00,
2013-04-10 13:57:00,87.8,51.5,30.07,NW,321,7.0,10.0,29,0.00,,,0.00,912,WeatherTracker,2013-04-10 20:57:00,
2013-04-10 14:02:00,88.0,51.7,30.07,WNW,300,7.0,10.0,29,0.00,,,0.00,909,WeatherTracker,2013-04-10 21:02:00,
2013-04-10 14:07:00,88.3,52.0,30.07,NNW,329,0.0,10.0,29,0.00,,,0.00,909,WeatherTracker,2013-04-10 21:07:00,
2013-04-10 14:13:00,88.2,52.8,30.06,NNW,332,3.0,10.0,30,0.00,,,0.00,904,WeatherTracker,2013-04-10 21:13:00,
2013-04-10 14:18:00,88.7,52.3,30.06,NW,306,10.0,10.0,29,0.00,,,0.00,900,WeatherTracker,2013-04-10 21:18:00,
2013-04-10 14:23:00,88.9,52.5,30.06,NW,306,0.0,10.0,29,0.00,,,0.00,893,WeatherTracker,2013-04-10 21:23:00,
2013-04-10 14:28:00,89.4,52.9,30.06,NNW,327,3.0,10.0,29,0.00,,,0.00,886,WeatherTracker,2013-04-10 21:28:00,
2013-04-10 14:33:00,90.1,53.5,30.06,NW,304,0.0,9.0,29,0.00,,,0.00,879,WeatherTracker,2013-04-10 21:33:00,
2013-04-10 14:38:00,90.3,52.7,30.06,NW,306,6.0,9.0,28,0.00,,,0.00,872,WeatherTracker,2013-04-10 21:38:00,
2013-04-10 14:43:00,90.2,52.6,30.06,NNW,340,6.0,8.0,28,0.00,,,0.00,865,WeatherTracker,2013-04-10 21:43:00,
2013-04-10 14:48:00,90.2,50.6,30.05,WSW,255,2.0,9.0,26,0.00,,,0.00,854,WeatherTracker,2013-04-10 21:48:00,
2013-04-10 14:53:00,90.1,52.6,30.05,WNW,290,6.0,9.0,28,0.00,,,0.00,846,WeatherTracker,2013-04-10 21:53:00,
2013-04-10 14:58:00,90.1,50.5,30.05,NW,310,0.0,11.0,26,0.00,,,0.00,840,WeatherTracker,2013-04-10 21:58:00,
2013-04-10 15:03:00,89.9,51.4,30.04,NW,304,0.0,11.0,27,0.00,,,0.00,826,WeatherTracker,2013-04-10 22:03:00,
2013-04-10 15:08:00,90.2,50.6,30.04,NW,307,0.0,9.0,26,0.00,,,0.00,821,WeatherTracker,2013-04-10 22:08:00,
2013-04-10 15:13:00,90.1,52.6,30.04,NW,308,0.0,7.0,28,0.00,,,0.00,809,WeatherTracker,2013-04-10 22:13:00,
2013-04-10 15:18:00,91.0,52.3,30.04,NNW,340,3.0,7.0,27,0.00,,,0.00,800,WeatherTracker,2013-04-10 22:18:00,
2013-04-10 15:23:00,91.5,51.7,30.04,WNW,286,3.0,10.0,26,0.00,,,0.00,784,WeatherTracker,2013-04-10 22:23:00,
2013-04-10 15:28:00,91.5,51.7,30.03,North,355,4.0,10.0,26,0.00,,,0.00,773,WeatherTracker,2013-04-10 22:28:00,
2013-04-10 15:33:00,91.6,51.8,30.03,NNW,344,0.0,8.0,26,0.00,,,0.00,758,WeatherTracker,2013-04-10 22:33:00,
2013-04-10 15:38:00,92.2,52.3,30.02,NW,318,4.0,8.0,26,0.00,,,0.00,752,WeatherTracker,2013-04-10 22:38:00,
2013-04-10 15:43:00,92.3,49.1,30.02,NNW,341,0.0,8.0,23,0.00,,,0.00,738,WeatherTracker,2013-04-10 22:43:00,
2013-04-10 15:49:00,91.8,50.9,30.02,NNW,344,0.0,8.0,25,0.00,,,0.00,724,WeatherTracker,2013-04-10 22:49:00,
2013-04-10 15:54:00,92.5,52.6,30.01,NNW,346,0.0,6.0,26,0.00,,,0.00,710,WeatherTracker,2013-04-10 22:54:00,
2013-04-10 15:59:00,92.3,51.3,30.01,North,355,0.0,5.0,25,0.00,,,0.00,703,WeatherTracker,2013-04-10 22:59:00,
2013-04-10 16:04:00,92.2,51.3,30.01,NNE,17,0.0,3.0,25,0.00,,,0.00,691,WeatherTracker,2013-04-10 23:04:00,
2013-04-10 16:09:00,92.5,51.5,30.01,SE,132,0.0,0.0,25,0.00,,,0.00,680,WeatherTracker,2013-04-10 23:09:00,
2013-04-10 16:14:00,93.0,51.9,30.00,SE,124,0.0,0.0,25,0.00,,,0.00,673,WeatherTracker,2013-04-10 23:14:00,
2013-04-10 16:19:00,93.1,53.1,30.00,SE,124,0.0,0.0,26,0.00,,,0.00,527,WeatherTracker,2013-04-10 23:19:00,
2013-04-10 16:24:00,93.1,52.0,30.00,SE,126,0.0,0.0,25,0.00,,,0.00,362,WeatherTracker,2013-04-10 23:24:00,
2013-04-10 16:29:00,92.5,51.5,30.00,West,262,1.0,0.0,25,0.00,,,0.00,483,WeatherTracker,2013-04-10 23:29:00,
2013-04-10 16:34:00,92.1,53.3,30.00,West,277,0.0,8.0,27,0.00,,,0.00,548,WeatherTracker,2013-04-10 23:34:00,
2013-04-10 16:39:00,92.0,52.2,29.99,WNW,287,0.0,8.0,26,0.00,,,0.00,635,WeatherTracker,2013-04-10 23:39:00,
2013-04-10 16:44:00,92.2,53.3,29.99,WNW,288,0.0,4.0,27,0.00,,,0.00,424,WeatherTracker,2013-04-10 23:44:00,
2013-04-10 16:49:00,92.3,51.3,29.99,WNW,288,0.0,4.0,25,0.00,,,0.00,471,WeatherTracker,2013-04-10 23:49:00,
2013-04-10 16:54:00,92.5,52.6,29.98,WNW,283,0.0,0.0,26,0.00,,,0.00,490,WeatherTracker,2013-04-10 23:54:00,
2013-04-10 16:59:00,92.4,52.5,29.98,WNW,296,0.0,0.0,26,0.00,,,0.00,483,WeatherTracker,2013-04-10 23:59:00,
2013-04-10 17:04:00,92.3,52.4,29.98,WNW,297,0.0,0.0,26,0.00,,,0.00,517,WeatherTracker,2013-04-11 00:04:00,
2013-04-10 17:09:00,92.8,51.8,29.98,South,171,0.0,0.0,25,0.00,,,0.00,534,WeatherTracker,2013-04-11 00:09:00,
2013-04-10 17:14:00,93.0,53.0,29.98,SSE,163,0.0,0.0,26,0.00,,,0.00,364,WeatherTracker,2013-04-11 00:14:00,
2013-04-10 17:19:00,92.9,52.9,29.97,SSE,167,0.0,2.0,26,0.00,,,0.00,329,WeatherTracker,2013-04-11 00:19:00,
2013-04-10 17:24:00,93.0,53.0,29.97,SSE,165,0.0,6.0,26,0.00,,,0.00,343,WeatherTracker,2013-04-11 00:24:00,
2013-04-10 17:29:00,93.0,53.0,29.97,SE,146,0.0,6.0,26,0.00,,,0.00,452,WeatherTracker,2013-04-11 00:29:00,
2013-04-10 17:34:00,92.9,52.9,29.97,SE,146,0.0,4.0,26,0.00,,,0.00,323,WeatherTracker,2013-04-11 00:34:00,
2013-04-10 17:39:00,92.6,53.7,29.97,ENE,78,0.0,4.0,27,0.00,,,0.00,330,WeatherTracker,2013-04-11 00:39:00,
2013-04-10 17:44:00,92.4,54.5,29.97,East,80,0.0,5.0,28,0.00,,,0.00,366,WeatherTracker,2013-04-11 00:44:00,
2013-04-10 17:49:00,92.0,52.2,29.97,East,84,0.0,5.0,26,0.00,,,0.00,318,WeatherTracker,2013-04-11 00:49:00,
2013-04-10 17:54:00,91.6,52.8,29.97,East,84,0.0,2.0,27,0.00,,,0.00,339,WeatherTracker,2013-04-11 00:54:00,
2013-04-10 17:59:00,91.5,54.7,29.97,ESE,113,0.0,2.0,29,0.00,,,0.00,329,WeatherTracker,2013-04-11 00:59:00,
2013-04-10 18:05:00,91.3,55.5,29.96,ESE,102,6.0,8.0,30,0.00,,,0.00,299,WeatherTracker,2013-04-11 01:05:00,
2013-04-10 18:10:00,90.7,56.7,29.96,ESE,104,0.0,8.0,32,0.00,,,0.00,279,WeatherTracker,2013-04-11 01:10:00,
2013-04-10 18:15:00,89.9,56.9,29.96,East,99,4.0,9.0,33,0.00,,,0.00,260,WeatherTracker,2013-04-11 01:15:00,
2013-04-10 18:20:00,89.1,56.2,29.96,ESE,107,0.0,9.0,33,0.00,,,0.00,236,WeatherTracker,2013-04-11 01:20:00,
2013-04-10 18:25:00,88.9,56.0,29.96,East,101,0.0,7.0,33,0.00,,,0.00,211,WeatherTracker,2013-04-11 01:25:00,
2013-04-10 18:30:00,88.6,55.8,29.96,East,97,0.0,0.0,33,0.00,,,0.00,188,WeatherTracker,2013-04-11 01:30:00,
2013-04-10 18:35:00,88.5,56.5,29.96,East,101,0.0,1.0,34,0.00,,,0.00,163,WeatherTracker,2013-04-11 01:35:00,
2013-04-10 18:40:00,88.5,56.5,29.96,East,100,0.0,1.0,34,0.00,,,0.00,114,WeatherTracker,2013-04-11 01:40:00,
2013-04-10 18:45:00,88.1,57.0,29.95,East,91,0.0,7.0,35,0.00,,,0.00,40,WeatherTracker,2013-04-11 01:45:00,
2013-04-10 18:50:00,86.8,58.1,29.95,ESE,102,6.0,7.0,38,0.00,,,0.00,46,WeatherTracker,2013-04-11 01:50:00,
2013-04-10 18:55:00,85.5,57.7,29.95,ESE,111,0.0,6.0,39,0.00,,,0.00,46,WeatherTracker,2013-04-11 01:55:00,
2013-04-10 19:00:00,84.2,57.9,29.95,ESE,104,0.0,7.0,41,0.00,,,0.00,33,WeatherTracker,2013-04-11 02:00:00,
2013-04-10 19:05:00,83.2,57.7,29.94,ESE,110,0.0,7.0,42,0.00,,,0.00,26,WeatherTracker,2013-04-11 02:05:00,
2013-04-10 19:10:00,82.5,57.7,29.95,ESE,108,0.0,6.0,43,0.00,,,0.00,21,WeatherTracker,2013-04-11 02:10:00,
2013-04-10 19:15:00,81.9,57.8,29.95,ESE,108,0.0,0.0,44,0.00,,,0.00,16,WeatherTracker,2013-04-11 02:15:00,
2013-04-10 19:20:00,81.4,58.0,29.95,ESE,105,0.0,0.0,45,0.00,,,0.00,14,WeatherTracker,2013-04-11 02:20:00,
2013-04-10 19:25:00,80.9,58.2,29.95,ESE,105,0.0,0.0,46,0.00,,,0.00,11,WeatherTracker,2013-04-11 02:25:00,
2013-04-10 19:30:00,80.4,58.3,29.95,ESE,108,0.0,0.0,47,0.00,,,0.00,7,WeatherTracker,2013-04-11 02:30:00,
2013-04-10 19:35:00,80.0,58.5,29.95,ESE,108,0.0,0.0,48,0.00,,,0.00,5,WeatherTracker,2013-04-11 02:35:00,
2013-04-10 19:40:00,79.6,58.7,29.94,ESE,108,0.0,0.0,49,0.00,,,0.00,0,WeatherTracker,2013-04-11 02:40:00,
2013-04-10 19:45:00,79.3,59.0,29.94,ESE,108,0.0,0.0,50,0.00,,,0.00,0,WeatherTracker,2013-04-11 02:45:00,
2013-04-10 19:50:00,78.9,59.2,29.94,ESE,108,0.0,0.0,51,0.00,,,0.00,0,WeatherTracker,2013-04-11 02:50:00,
2013-04-10 19:55:00,78.4,58.8,29.94,ESE,108,0.0,0.0,51,0.00,,,0.00,0,WeatherTracker,2013-04-11 02:55:00,
2013-04-10 20:00:00,78.0,59.5,29.95,ESE,108,0.0,0.0,53,0.00,,,0.00,0,WeatherTracker,2013-04-11 03:00:00,
2013-04-10 20:06:00,77.5,59.0,29.95,ESE,117,0.0,1.0,53,0.00,,,0.00,0,WeatherTracker,2013-04-11 03:06:00,
2013-04-10 20:11:00,77.1,58.6,29.94,ESE,117,0.0,1.0,53,0.00,,,0.00,0,WeatherTracker,2013-04-11 03:11:00,
2013-04-10 20:16:00,76.6,58.7,29.94,ESE,117,0.0,0.0,54,0.00,,,0.00,0,WeatherTracker,2013-04-11 03:16:00,
2013-04-10 20:21:00,76.1,58.7,29.94,WSW,253,0.0,5.0,55,0.00,,,0.00,0,WeatherTracker,2013-04-11 03:21:00,
2013-04-10 20:26:00,75.6,56.2,29.94,West,267,0.0,5.0,51,0.00,,,0.00,0,WeatherTracker,2013-04-11 03:26:00,
2013-04-10 20:31:00,75.4,52.6,29.94,West,263,3.0,9.0,45,0.00,,,0.00,0,WeatherTracker,2013-04-11 03:31:00,
2013-04-10 20:36:00,75.4,50.7,29.94,West,259,4.0,10.0,42,0.00,,,0.00,0,WeatherTracker,2013-04-11 03:36:00,
2013-04-10 20:41:00,75.5,50.8,29.95,West,261,7.0,13.0,42,0.00,,,0.00,0,WeatherTracker,2013-04-11 03:41:00,
2013-04-10 20:46:00,75.5,50.8,29.95,WSW,255,6.0,13.0,42,0.00,,,0.00,0,WeatherTracker,2013-04-11 03:46:00,
2013-04-10 20:51:00,75.3,50.6,29.95,SW,236,7.0,12.0,42,0.00,,,0.00,0,WeatherTracker,2013-04-11 03:51:00,
2013-04-10 20:56:00,75.1,51.1,29.95,WSW,254,2.0,11.0,43,0.00,,,0.00,0,WeatherTracker,2013-04-11 03:56:00,
2013-04-10 21:00:00,74.9,50.9,29.95,WSW,250,3.0,11.0,43,0.00,,,0.00,0,WeatherTracker,2013-04-11 04:00:00,
2013-04-10 21:01:00,74.8,50.8,29.95,WSW,245,0.0,11.0,43,0.00,,,0.00,0,WeatherTracker,2013-04-11 04:01:00,
2013-04-10 21:06:00,74.5,51.1,29.95,West,261,5.0,7.0,44,0.00,,,0.00,0,WeatherTracker,2013-04-11 04:06:00,
2013-04-10 21:11:00,74.2,51.5,29.95,West,271,0.0,7.0,45,0.00,,,0.00,0,WeatherTracker,2013-04-11 04:11:00,
2013-04-10 21:17:00,73.9,51.2,29.96,West,267,0.0,7.0,45,0.00,,,0.00,0,WeatherTracker,2013-04-11 04:17:00,
2013-04-10 21:22:00,73.6,50.9,29.96,West,272,4.0,6.0,45,0.00,,,0.00,0,WeatherTracker,2013-04-11 04:22:00,
2013-04-10 21:27:00,73.4,50.8,29.96,WNW,294,0.0,9.0,45,0.00,,,0.00,0,WeatherTracker,2013-04-11 04:27:00,
2013-04-10 21:32:00,73.3,51.3,29.96,NW,316,0.0,9.0,46,0.00,,,0.00,0,WeatherTracker,2013-04-11 04:32:00,
2013-04-10 21:37:00,73.2,51.2,29.96,WNW,295,2.0,9.0,46,0.00,,,0.00,0,WeatherTracker,2013-04-11 04:37:00,
2013-04-10 21:42:00,73.1,51.1,29.96,WSW,255,0.0,8.0,46,0.00,,,0.00,0,WeatherTracker,2013-04-11 04:42:00,
2013-04-10 21:47:00,73.0,51.0,29.96,West,271,0.0,10.0,46,0.00,,,0.00,0,WeatherTracker,2013-04-11 04:47:00,
2013-04-10 21:52:00,72.9,50.9,29.96,WSW,254,3.0,10.0,46,0.00,,,0.00,0,WeatherTracker,2013-04-11 04:52:00,
2013-04-10 21:57:00,72.8,50.8,29.96,West,269,2.0,7.0,46,0.00,,,0.00,0,WeatherTracker,2013-04-11 04:57:00,
2013-04-10 22:02:00,72.8,50.8,29.96,West,267,7.0,8.0,46,0.00,,,0.00,0,WeatherTracker,2013-04-11 05:02:00,
2013-04-10 22:07:00,72.7,50.7,29.97,West,264,8.0,9.0,46,0.00,,,0.00,0,WeatherTracker,2013-04-11 05:07:00,
2013-04-10 22:12:00,72.6,50.6,29.97,West,259,4.0,9.0,46,0.00,,,0.00,0,WeatherTracker,2013-04-11 05:12:00,
2013-04-10 22:17:00,72.5,50.5,29.97,West,269,6.0,10.0,46,0.00,,,0.00,0,WeatherTracker,2013-04-11 05:17:00,
2013-04-10 22:22:00,72.4,50.4,29.97,West,269,0.0,10.0,46,0.00,,,0.00,0,WeatherTracker,2013-04-11 05:22:00,
2013-04-10 22:27:00,72.4,49.8,29.97,West,280,0.0,10.0,45,0.00,,,0.00,0,WeatherTracker,2013-04-11 05:27:00,
2013-04-10 22:32:00,72.3,49.8,29.97,NW,306,4.0,8.0,45,0.00,,,0.00,0,WeatherTracker,2013-04-11 05:32:00,
2013-04-10 22:37:00,72.2,49.7,29.97,West,271,0.0,9.0,45,0.00,,,0.00,0,WeatherTracker,2013-04-11 05:37:00,
2013-04-10 22:42:00,72.2,49.7,29.96,WNW,296,0.0,9.0,45,0.00,,,0.00,0,WeatherTracker,2013-04-11 05:42:00,
2013-04-10 22:48:00,72.0,49.5,29.96,NW,320,3.0,5.0,45,0.00,,,0.00,0,WeatherTracker,2013-04-11 05:48:00,
2013-04-10 22:53:00,72.0,49.5,29.97,NNW,340,0.0,6.0,45,0.00,,,0.00,0,WeatherTracker,2013-04-11 05:53:00,
2013-04-10 22:58:00,71.9,49.4,29.96,NW,319,0.0,6.0,45,0.00,,,0.00,0,WeatherTracker,2013-04-11 05:58:00,
2013-04-10 23:03:00,71.8,49.3,29.96,WNW,296,0.0,6.0,45,0.00,,,0.00,0,WeatherTracker,2013-04-11 06:03:00,
2013-04-10 23:08:00,71.7,49.2,29.96,WNW,296,0.0,6.0,45,0.00,,,0.00,0,WeatherTracker,2013-04-11 06:08:00,
2013-04-10 23:13:00,71.7,49.2,29.96,NW,308,0.0,2.0,45,0.00,,,0.00,0,WeatherTracker,2013-04-11 06:13:00,
2013-04-10 23:18:00,71.6,49.1,29.96,NW,311,3.0,0.0,45,0.00,,,0.00,0,WeatherTracker,2013-04-11 06:18:00,
2013-04-10 23:23:00,71.5,49.6,29.96,WNW,299,0.0,4.0,46,0.00,,,0.00,0,WeatherTracker,2013-04-11 06:23:00,
2013-04-10 23:28:00,71.3,48.8,29.97,NW,304,0.0,4.0,45,0.00,,,0.00,0,WeatherTracker,2013-04-11 06:28:00,
2013-04-10 23:33:00,71.2,48.8,29.96,NW,310,5.0,5.0,45,0.00,,,0.00,0,WeatherTracker,2013-04-11 06:33:00,
2013-04-10 23:38:00,71.0,49.2,29.96,NW,317,0.0,7.0,46,0.00,,,0.00,0,WeatherTracker,2013-04-11 06:38:00,
2013-04-10 23:43:00,70.9,49.1,29.96,NW,316,0.0,7.0,46,0.00,,,0.00,0,WeatherTracker,2013-04-11 06:43:00,
2013-04-10 23:48:00,70.7,48.9,29.97,NW,315,0.0,6.0,46,0.00,,,0.00,0,WeatherTracker,2013-04-11 06:48:00,
2013-04-10 23:53:00,70.6,49.4,29.96,NW,315,0.0,4.0,47,0.00,,,0.00,0,WeatherTracker,2013-04-11 06:53:00,
2013-04-10 23:58:00,70.4,49.2,29.96,NW,312,0.0,4.0,47,0.00,,,0.00,0,WeatherTracker,2013-04-11 06:58:00,